LEBL Weather Reports


Display with metric or nautical units.
time (UTC)temp
F
wind
direction
speed
MPH
gust
MPH
rain 1hr
in
rain 24hr
in
rain mn
in
humidity
%
barometer
mb
20260507200004 63 70 6.0 0.0 0.00 0.00 0.00 77 1013.0
20260507194504 63 70 6.0 0.0 0.00 0.00 0.00 77 1013.0
20260507191504 64 80 7.0 0.0 0.00 0.00 0.00 72 1013.0
20260507190005 64 80 7.0 0.0 0.00 0.00 0.00 72 1012.0
20260507183003 64 80 8.0 0.0 0.00 0.00 0.00 72 1012.0
20260507181504 64 80 8.0 0.0 0.00 0.00 0.00 72 1012.0
20260507180005 64 100 8.0 0.0 0.00 0.00 0.00 72 1012.0
20260507171504 66 90 9.0 0.0 0.00 0.00 0.00 68 1012.0
20260507170004 64 100 9.0 0.0 0.00 0.00 0.00 67 1012.0
20260507160004 66 90 12.0 0.0 0.00 0.00 0.00 63 1012.0
20260507154503 66 90 12.0 0.0 0.00 0.00 0.00 63 1012.0
20260507151505 66 90 1.0 0.0 0.00 0.00 0.00 63 1012.0
20260507144504 66 90 12.0 0.0 0.00 0.00 0.00 63 1013.0
20260507141504 66 100 12.0 0.0 0.00 0.00 0.00 59 1013.0
20260507140004 66 110 12.0 0.0 0.00 0.00 0.00 59 1013.0
20260507134504 66 110 12.0 0.0 0.00 0.00 0.00 59 1013.0
20260507133004 66 110 13.0 0.0 0.00 0.00 0.00 63 1014.0
20260507131504 66 110 13.0 0.0 0.00 0.00 0.00 63 1014.0
20260507124504 66 120 13.0 0.0 0.00 0.00 0.00 63 1014.0
20260507123005 66 100 12.0 0.0 0.00 0.00 0.00 68 1014.0
20260507120005 66 90 13.0 0.0 0.00 0.00 0.00 63 1014.0
20260507114504 66 90 13.0 0.0 0.00 0.00 0.00 63 1014.0
20260507113005 66 100 13.0 0.0 0.00 0.00 0.00 63 1014.0
20260507111504 66 100 13.0 0.0 0.00 0.00 0.00 63 1014.0
20260507110005 64 80 14.0 0.0 0.00 0.00 0.00 67 1015.0
20260507104504 64 80 14.0 0.0 0.00 0.00 0.00 67 1015.0
20260507103005 66 90 13.0 0.0 0.00 0.00 0.00 63 1014.0
20260507101504 66 90 13.0 0.0 0.00 0.00 0.00 63 1014.0
20260507091504 64 100 13.0 0.0 0.00 0.00 0.00 67 1014.0
20260507090005 64 60 1.0 0.0 0.00 0.00 0.00 77 1014.0
20260507083005 63 350 5.0 0.0 0.00 0.00 0.00 72 1014.0
20260507081503 63 350 5.0 0.0 0.00 0.00 0.00 72 1014.0
20260507080004 59 330 7.0 0.0 0.00 0.00 0.00 76 1014.0
20260507064504 55 330 8.0 0.0 0.00 0.00 0.00 82 1013.0
20260507063004 55 330 8.0 0.0 0.00 0.00 0.00 82 1013.0
20260507061504 55 330 8.0 0.0 0.00 0.00 0.00 82 1013.0
20260507053004 55 340 6.0 0.0 0.00 0.00 0.00 87 1013.0
20260507050005 55 330 7.0 0.0 0.00 0.00 0.00 87 1013.0
20260507043004 55 330 7.0 0.0 0.00 0.00 0.00 87 1013.0
20260507041503 55 330 7.0 0.0 0.00 0.00 0.00 87 1013.0
20260507040005 55 330 7.0 0.0 0.00 0.00 0.00 87 1013.0
20260507034504 55 330 7.0 0.0 0.00 0.00 0.00 87 1013.0
20260507031515 57 330 6.0 0.0 0.00 0.00 0.00 82 1013.0
20260507030004 57 40 6.0 0.0 0.00 0.00 0.00 82 1013.0
20260507024503 57 40 6.0 0.0 0.00 0.00 0.00 82 1013.0
20260507021503 59 50 8.0 0.0 0.00 0.00 0.00 76 1013.0
20260507014503 57 350 6.0 0.0 0.00 0.00 0.00 82 1013.0
20260507013005 59 340 6.0 0.0 0.00 0.00 0.00 76 1014.0
20260507011503 59 340 6.0 0.0 0.00 0.00 0.00 76 1014.0
20260507004504 57 330 7.0 0.0 0.00 0.00 0.00 76 1014.0
20260507003005 57 330 5.0 0.0 0.00 0.00 0.00 76 1013.0
20260507001504 57 330 5.0 0.0 0.00 0.00 0.00 76 1013.0
20260507000004 57 330 5.0 0.0 0.00 0.00 0.00 76 1013.0
20260506230004 59 310 5.0 0.0 0.00 0.00 0.00 76 1014.0
20260506224504 59 310 5.0 0.0 0.00 0.00 0.00 76 1014.0
20260506223005 61 20 1.0 0.0 0.00 0.00 0.00 72 1013.0
20260506220005 63 0 1.0 0.0 0.00 0.00 0.00 72 1013.0
20260506214504 63 0 1.0 0.0 0.00 0.00 0.00 72 1013.0
20260506203004 64 0 2.0 0.0 0.00 0.00 0.00 63 1012.0
20260506201504 64 0 2.0 0.0 0.00 0.00 0.00 63 1012.0